Stations météo

réclame
Mon MeteoGroup
Capo Palinuro, Italie (16310): Température de l'air & dewpoint: 18.09.2018 11:00:00 - 24.09.2018 11:00:00 (CEST)Capo Palinuro, Italie (16310): Vitesse du vent: 18.09.2018 11:00:00 - 24.09.2018 11:00:00 (CEST)Capo Palinuro, Italie (16310): Direction du vent: 18.09.2018 11:00:00 - 24.09.2018 11:00:00 (CEST)Capo Palinuro, Italie (16310): reduced air pressure: 18.09.2018 11:00:00 - 24.09.2018 11:00:00 (CEST)Capo Palinuro, Italie (16310): visibility: 18.09.2018 11:00:00 - 24.09.2018 11:00:00 (CEST)Capo Palinuro, Italie (16310): Ensoleillement: 18.09.2018 11:00:00 - 24.09.2018 11:00:00 (CEST)
Date & Time tt [°C] td [°C] ff [km/h] ff [knt] dd ppp [hPa] vv [km] sd [min]
24.09.2018 11:00:00 26,2 22,9 0 0 N 1015,9 15 0
24.09.2018 10:00:00 24,6 22,3 15 8 S 1015,8 10 30
24.09.2018 09:00:00 24,4 21,1 11 6 S 1015,8 15 0
24.09.2018 08:00:00 24,4 22,3 8 4 S 1016,0 15 -
24.09.2018 07:00:00 24,0 21,7 0 0 N 1016,3 15 -
24.09.2018 06:00:00 23,8 21,5 0 0 N 1016,5 15 -
24.09.2018 05:00:00 23,8 21,7 0 0 N 1017,3 15 -
24.09.2018 04:00:00 24,0 21,9 0 0 N 1017,7 15 -
24.09.2018 03:00:00 24,2 22,1 0 0 N 1017,7 20 -
24.09.2018 02:00:00 24,0 21,9 0 0 N 1017,9 20 -
24.09.2018 01:00:00 24,2 22,5 0 0 N 1018,1 20 -
24.09.2018 00:00:00 25,0 22,9 0 0 N 1018,2 20 -
23.09.2018 23:00:00 25,0 22,7 0 0 N 1018,2 20 -
23.09.2018 22:00:00 25,0 23,2 0 0 N 1018,2 20 -
23.09.2018 21:00:00 25,0 23,2 0 0 N 1018,2 20 -
23.09.2018 20:00:00 25,0 23,3 0 0 N 1018,3 20 -
23.09.2018 19:00:00 25,8 24,0 8 4 N 1018,2 20 -
23.09.2018 18:00:00 26,0 23,9 8 4 NNE 1018,3 20 60
23.09.2018 17:00:00 27,2 24,9 11 6 NNE 1018,6 20 60
23.09.2018 16:00:00 27,4 23,7 8 4 SSE 1019,1 20 60
23.09.2018 15:00:00 27,6 23,8 8 4 S 1019,2 20 60
23.09.2018 14:00:00 27,6 23,8 13 7 S 1019,1 20 60
23.09.2018 13:00:00 27,6 23,4 18 10 NNE 1019,2 20 60
23.09.2018 12:00:00 27,4 23,7 18 10 S 1019,2 20 60
23.09.2018 11:00:00 26,0 23,3 9 5 ESE 1019,1 20 60
23.09.2018 10:00:00 26,4 23,7 9 5 SSW 1018,8 20 60
23.09.2018 09:00:00 26,0 23,3 11 6 SE 1018,2 20 60
23.09.2018 08:00:00 24,4 21,7 9 5 NW 1017,9 20 60
23.09.2018 07:00:00 24,2 21,7 9 5 SSW 1017,8 20 -
23.09.2018 06:00:00 25,0 22,9 11 6 NNE 1017,7 20 -
23.09.2018 05:00:00 25,0 23,3 9 5 WSW 1017,7 20 -
23.09.2018 04:00:00 25,0 23,2 9 5 SSE 1017,7 20 -
23.09.2018 03:00:00 25,0 23,2 9 5 NNE 1017,7 20 -
23.09.2018 02:00:00 25,0 22,9 9 5 NNE 1017,7 20 -
23.09.2018 01:00:00 25,0 22,9 11 6 NW 1017,7 20 -
23.09.2018 00:00:00 25,0 23,2 9 5 NNW 1017,6 20 -
22.09.2018 23:00:00 24,8 23,2 11 6 WSW 1017,4 20 -
22.09.2018 22:00:00 25,2 23,2 15 8 SSW 1017,2 20 -
22.09.2018 21:00:00 25,6 24,0 11 6 W 1016,7 20 -
22.09.2018 20:00:00 25,8 24,8 13 7 SSW 1016,6 20 -
22.09.2018 19:00:00 25,8 24,4 13 7 N 1016,6 20 42
22.09.2018 18:00:00 26,4 24,2 13 7 S 1016,5 20 60
22.09.2018 17:00:00 27,0 24,7 15 8 WSW 1016,5 20 60
22.09.2018 16:00:00 27,4 24,1 15 8 WSW 1016,5 20 60
22.09.2018 15:00:00 27,6 23,4 15 8 WNW 1016,5 20 60
22.09.2018 14:00:00 27,4 23,0 13 7 W 1016,4 20 60
22.09.2018 13:00:00 27,2 22,6 11 6 SSE 1016,3 20 60
22.09.2018 12:00:00 27,0 22,4 0 0 N 1016,1 20 60
22.09.2018 11:00:00 26,8 21,3 11 6 SSW 1016,1 20 60
22.09.2018 10:00:00 26,0 21,0 8 4 NW 1015,9 20 60
22.09.2018 09:00:00 24,8 21,3 0 0 N 1015,4 20 60
22.09.2018 08:00:00 23,8 21,5 9 5 NNW 1015,3 20 30
22.09.2018 07:00:00 23,8 21,5 8 4 NNW 1015,3 20 -
22.09.2018 06:00:00 24,2 22,3 9 5 WNW 1015,3 20 -
22.09.2018 05:00:00 24,2 22,1 13 7 NNW 1015,3 20 -
22.09.2018 04:00:00 24,2 22,1 11 6 NNW 1015,3 20 -
22.09.2018 03:00:00 24,0 21,9 11 6 NW 1015,3 20 -
22.09.2018 02:00:00 24,4 23,0 15 8 NNW 1015,3 20 -
22.09.2018 01:00:00 24,6 23,0 15 8 NW 1015,1 20 -
22.09.2018 00:00:00 25,0 23,2 8 4 NW 1015,0 20 -
21.09.2018 23:00:00 24,8 23,0 11 6 WNW 1014,9 20 -
21.09.2018 22:00:00 25,2 22,9 0 0 N 1014,7 20 -
21.09.2018 21:00:00 26,0 24,2 0 0 N 1014,6 20 -
21.09.2018 20:00:00 26,0 23,9 0 0 N 1014,7 20 -
21.09.2018 19:00:00 26,4 24,2 0 0 N 1014,7 20 0
21.09.2018 18:00:00 26,6 23,7 11 6 SW 1014,8 20 24
21.09.2018 17:00:00 27,8 23,2 13 7 SSW 1014,8 20 60
21.09.2018 16:00:00 28,0 22,0 15 8 SW 1014,8 20 60
21.09.2018 15:00:00 28,0 21,5 16 9 SSW 1014,9 20 60
21.09.2018 14:00:00 27,8 21,6 15 8 SSW 1015,0 20 60
21.09.2018 13:00:00 27,6 21,6 11 6 WSW 1014,9 20 60
21.09.2018 12:00:00 28,0 21,1 13 7 SW 1014,7 20 60
21.09.2018 11:00:00 27,6 22,1 15 8 SW 1014,6 20 60
21.09.2018 10:00:00 26,0 21,2 8 4 ESE 1014,4 20 60
21.09.2018 09:00:00 25,0 22,1 8 4 E 1014,4 20 60
21.09.2018 08:00:00 24,8 22,5 8 4 E 1014,4 20 0
21.09.2018 07:00:00 24,8 22,9 8 4 NW 1014,4 20 -
21.09.2018 06:00:00 24,8 22,5 9 5 N 1014,6 20 -
21.09.2018 05:00:00 25,0 23,1 11 6 NNW 1015,0 20 -
21.09.2018 04:00:00 25,0 22,3 9 5 NW 1015,2 20 -
21.09.2018 03:00:00 25,0 21,7 9 5 NNW 1015,6 20 -
21.09.2018 02:00:00 25,2 20,9 9 5 WNW 1015,5 20 -
21.09.2018 01:00:00 25,0 21,7 9 5 NW 1015,6 20 -
21.09.2018 00:00:00 25,0 20,7 9 5 NNE 1015,6 20 -
20.09.2018 23:00:00 25,0 21,7 5 3 NNE 1015,6 20 -
20.09.2018 22:00:00 25,2 21,9 5 3 NW 1015,6 20 -
20.09.2018 21:00:00 26,0 21,7 8 4 NNE 1015,5 20 -
20.09.2018 20:00:00 24,4 19,5 9 5 NNE 1015,6 20 -
20.09.2018 19:00:00 26,8 22,7 8 4 W 1015,6 20 0
20.09.2018 18:00:00 26,8 22,0 11 6 W 1015,7 18 0
20.09.2018 17:00:00 27,0 24,1 5 3 NNE 1015,9 20 0
20.09.2018 16:00:00 27,8 22,7 8 4 NE 1016,1 20 18
20.09.2018 15:00:00 28,0 22,7 5 3 NE 1016,6 20 42
20.09.2018 14:00:00 27,6 23,2 8 4 WSW 1017,0 20 0
20.09.2018 13:00:00 27,6 21,6 8 4 S 1017,0 20 30
20.09.2018 12:00:00 27,4 20,5 5 3 SSW 1016,9 20 60
20.09.2018 11:00:00 27,2 19,8 5 3 SSW 1016,8 15 60
20.09.2018 10:00:00 26,0 21,2 11 6 ESE 1016,9 20 60
20.09.2018 09:00:00 25,8 23,7 9 5 ESE 1016,8 20 60
20.09.2018 08:00:00 24,8 22,7 9 5 SSE 1016,8 20 60
20.09.2018 07:00:00 24,0 22,3 11 6 SSE 1016,8 20 30
20.09.2018 06:00:00 24,0 22,3 9 5 ESE 1016,9 20 -
20.09.2018 05:00:00 24,2 22,5 15 8 ESE 1017,3 20 -
20.09.2018 04:00:00 25,0 22,3 0 0 N 1017,3 20 -
20.09.2018 03:00:00 24,8 22,5 9 5 SSE 1017,3 20 -
20.09.2018 02:00:00 25,0 23,3 11 6 SE 1017,3 20 -
20.09.2018 01:00:00 25,0 23,2 11 6 SSE 1017,3 20 -
20.09.2018 00:00:00 25,0 22,3 9 5 SSE 1017,3 20 -
19.09.2018 23:00:00 25,0 22,3 0 0 N 1017,3 20 -
19.09.2018 22:00:00 25,0 22,9 0 0 N 1017,3 20 -
19.09.2018 21:00:00 25,2 21,5 9 5 E 1017,2 20 -
19.09.2018 20:00:00 25,4 22,9 9 5 ESE 1017,2 20 -
19.09.2018 19:00:00 26,0 24,2 9 5 ESE 1017,2 20 0
19.09.2018 18:00:00 26,4 24,2 9 5 E 1017,6 20 0
19.09.2018 17:00:00 27,0 24,3 11 6 ESE 1018,0 20 0
19.09.2018 16:00:00 27,0 22,4 0 0 N 1018,0 20 36
19.09.2018 15:00:00 26,2 22,1 0 0 N 1018,3 20 0
19.09.2018 14:00:00 28,0 23,8 11 6 SSE 1018,1 20 30
19.09.2018 13:00:00 27,6 23,2 9 5 SSE 1018,1 20 60
19.09.2018 12:00:00 26,8 23,1 0 0 N 1018,2 20 30
19.09.2018 11:00:00 26,0 22,9 0 0 N 1018,3 20 12
19.09.2018 10:00:00 25,0 22,5 11 6 SW 1018,2 20 0
19.09.2018 09:00:00 25,2 22,5 15 8 SSE 1018,5 20 12
19.09.2018 08:00:00 24,8 23,0 13 7 ENE 1018,4 20 60
19.09.2018 07:00:00 25,0 23,1 13 7 ESE 1018,4 20 0
19.09.2018 06:00:00 25,0 23,2 8 4 SW 1018,5 20 -
19.09.2018 05:00:00 25,0 23,1 0 0 N 1018,6 20 -
19.09.2018 04:00:00 25,0 21,5 9 5 ESE 1018,9 20 -
19.09.2018 03:00:00 25,0 23,2 9 5 ESE 1019,0 20 -
19.09.2018 02:00:00 25,0 22,3 11 6 SSE 1019,1 20 -
19.09.2018 01:00:00 25,0 22,5 11 6 WNW 1019,1 20 -
19.09.2018 00:00:00 24,8 22,1 15 8 ENE 1019,1 20 -
18.09.2018 23:00:00 24,6 21,3 13 7 W 1019,0 20 -
18.09.2018 22:00:00 24,4 21,1 9 5 NNE 1018,9 20 -
18.09.2018 21:00:00 24,4 22,5 11 6 NNE 1018,7 20 -
18.09.2018 20:00:00 24,4 22,8 9 5 S 1018,7 20 -
18.09.2018 19:00:00 25,0 23,1 13 7 SW 1018,8 20 0
18.09.2018 18:00:00 26,4 24,1 11 6 WSW 1019,0 20 42
18.09.2018 17:00:00 26,8 23,1 13 7 SSW 1019,2 20 60
18.09.2018 16:00:00 27,0 22,6 9 5 S 1019,1 20 60
18.09.2018 15:00:00 27,4 22,8 9 5 SW 1019,4 20 60
18.09.2018 14:00:00 27,4 23,2 11 6 ESE 1019,5 20 60
18.09.2018 13:00:00 27,4 23,4 11 6 SSW 1019,5 20 60
18.09.2018 12:00:00 27,4 23,2 9 5 S 1019,5 20 60
18.09.2018 11:00:00 27,0 23,5 11 6 WSW 1019,5 20 60

tt = Température de l'air
td = dewpoint
ff = Vitesse du vent
dd = Direction du vent
ppp = reduced air pressure
vv = visibility
sd = Ensoleillement

stations d'obs. à proximité